Date String (YYYY-MM-DD hh:mm:ss) UTC,Instrument flags,Ambient pressure (hPa),Sample flow (lpm),Bypass flow (lpm),Sample temperature (°C),Ambient temperature (°C),ASC tube jacket temperature (°C),LED temperature (°C),Box temperature (°C),Sample RH (%),Span deviation,Mass concentration (μg/m³),Mass concentration (μg/m³),Mass concentration (μg/m³)
DateTimeUTC,F1_M11,P_M11,Q1_M11,Q2_M11,T1_M11,T2_M11,T3_M11,T4_M11,T5_M11,U1_M11,ZSPAN_M11,X2_M11,X0_M11,X1_M11
2022-04-27 19:00:00,,0822.4,5.00,0.00,30.2,27.9,00.0,39.0,31.7,07.9,0001.5,0013.12,0037.67,0006.87
2022-04-27 19:01:00,,0822.4,5.00,0.00,30.0,25.9,00.0,38.9,31.2,07.9,0001.2,0013.20,0038.20,0006.88
2022-04-27 19:02:00,,0822.5,5.01,0.00,29.9,25.6,00.0,38.9,31.2,08.0,0001.4,0013.38,0041.01,0006.92
2022-04-27 19:03:00,,0822.5,5.00,0.00,29.8,26.1,00.0,38.8,31.2,07.8,0000.9,0013.60,0045.91,0006.93
2022-04-27 19:04:00,,0822.4,5.01,0.00,29.7,26.6,00.0,38.8,31.3,08.0,0000.7,0013.73,0049.87,0006.92
2022-04-27 19:05:00,,0822.4,5.00,0.00,29.7,27.0,00.0,38.8,31.4,07.8,0001.4,0013.73,0051.30,0006.93
2022-04-27 19:06:00,,0822.4,4.99,0.00,29.7,27.4,00.0,38.7,31.4,07.8,0001.1,0013.83,0051.54,0006.93
2022-04-27 19:07:00,,0822.5,5.01,0.00,29.8,27.7,00.0,38.7,31.5,08.2,0001.9,0013.91,0051.80,0006.94
2022-04-27 19:08:00,,0822.4,5.01,0.00,29.8,27.9,00.0,38.7,31.5,08.1,0002.7,0013.92,0052.30,0006.94
2022-04-27 19:09:00,,0822.3,4.99,0.00,29.8,28.2,00.0,38.7,31.6,08.1,0002.7,0013.88,0052.10,0006.93
2022-04-27 19:10:00,,0822.3,5.02,0.00,29.8,28.3,00.0,38.7,31.6,08.0,0003.1,0013.87,0051.49,0006.94
2022-04-27 19:11:00,,0822.3,4.99,0.00,29.8,28.4,00.0,38.7,31.6,08.0,0003.0,0013.89,0050.56,0006.94
2022-04-27 19:12:00,,0822.3,5.01,0.00,29.8,28.6,00.0,38.7,31.7,08.0,0003.1,0013.80,0050.35,0006.94
2022-04-27 19:13:00,,0822.3,4.99,0.00,29.9,28.7,00.0,38.8,31.7,08.1,0003.3,0013.69,0047.73,0006.92
2022-04-27 19:14:00,,0822.3,4.99,0.00,29.9,28.8,00.0,38.8,31.7,08.1,0003.6,0013.48,0042.65,0006.90
2022-04-27 19:15:00,,0822.3,5.00,0.00,29.9,28.9,00.0,38.8,31.8,08.0,0003.4,0013.22,0038.00,0006.88
2022-04-27 19:16:00,,0822.2,5.02,0.00,29.9,28.9,00.0,38.8,31.8,07.9,0003.3,0013.11,0036.58,0006.87
2022-04-27 19:17:00,,0822.1,4.98,0.00,30.0,29.0,00.0,38.8,31.8,08.0,0003.7,0013.07,0037.21,0006.86
2022-04-27 19:18:00,,0822.1,4.99,0.00,30.0,28.1,00.0,38.8,31.6,08.0,0003.3,0012.99,0037.32,0006.85
2022-04-27 19:19:00,,0822.0,5.01,0.00,29.8,25.8,00.0,38.8,31.0,08.1,0003.7,0012.91,0036.05,0006.83
2022-04-27 19:20:00,,0822.0,4.99,0.00,29.7,25.3,00.0,38.7,30.9,08.1,0004.6,0012.98,0036.18,0006.82
2022-04-27 19:21:00,,0821.9,5.01,0.00,29.6,25.8,00.0,38.7,31.0,08.3,0004.9,0013.00,0037.21,0006.79
2022-04-27 19:22:00,,0821.8,5.01,0.00,29.5,26.3,00.0,38.6,31.1,08.4,0005.1,0012.94,0038.32,0006.76
2022-04-27 19:23:00,,0821.9,5.01,0.00,29.5,26.8,00.0,38.6,31.2,08.2,0004.8,0013.02,0038.66,0006.75
2022-04-27 19:24:00,,0821.8,4.98,0.00,29.5,27.1,00.0,38.6,31.2,08.2,0005.0,0013.17,0040.49,0006.78
2022-04-27 19:25:00,,0821.8,5.00,0.00,29.5,27.5,00.0,38.6,31.3,08.2,0005.8,0013.24,0041.39,0006.78
2022-04-27 19:26:00,,0821.8,5.01,0.00,29.5,27.7,00.0,38.5,31.3,08.1,0005.6,0013.33,0041.75,0006.79
2022-04-27 19:27:00,,0821.7,4.99,0.00,29.6,27.9,00.0,38.5,31.3,08.0,0006.0,0013.37,0041.52,0006.81
2022-04-27 19:28:00,,0821.7,4.99,0.00,29.6,28.1,00.0,38.5,31.3,08.2,0005.6,0013.33,0039.96,0006.80
2022-04-27 19:29:00,,0821.7,5.02,0.00,29.6,28.2,00.0,38.5,31.4,08.2,0005.3,0013.38,0040.24,0006.82
2022-04-27 19:30:00,,0821.6,4.99,0.00,29.6,28.3,00.0,38.5,31.4,08.3,0004.8,0013.51,0041.20,0006.85
2022-04-27 19:31:00,,0821.5,5.01,0.00,29.6,28.4,00.0,38.5,31.4,08.2,0004.1,0013.46,0042.05,0006.88
2022-04-27 19:32:00,,0821.5,5.00,0.00,29.6,28.5,00.0,38.5,31.5,08.3,0004.2,0013.48,0041.64,0006.95
2022-04-27 19:33:00,,0821.5,4.99,0.00,29.6,28.6,00.0,38.5,31.5,08.1,0004.1,0013.52,0041.28,0007.00
2022-04-27 19:34:00,,0821.5,5.01,0.00,29.7,28.6,00.0,38.6,31.5,08.2,0004.3,0013.64,0040.33,0007.06
2022-04-27 19:35:00,,0821.5,5.00,0.00,29.7,28.7,00.0,38.6,31.5,08.4,0004.3,0013.58,0038.42,0007.06
2022-04-27 19:36:00,,0821.6,5.00,0.00,29.7,28.8,00.0,38.6,31.5,08.2,0004.0,0013.65,0038.29,0007.11
2022-04-27 19:37:00,,0821.7,5.00,0.00,29.7,28.8,00.0,38.6,31.5,08.4,0004.0,0013.80,0038.46,0007.15
2022-04-27 19:38:00,,0821.7,5.01,0.00,29.8,28.9,00.0,38.6,31.6,08.2,0003.7,0013.96,0038.77,0007.20
2022-04-27 19:39:00,,0821.7,4.98,0.00,29.8,28.9,00.0,38.6,31.6,08.2,0004.1,0014.05,0039.05,0007.22
2022-04-27 19:40:00,,0821.7,4.99,0.00,29.7,27.6,00.0,38.6,31.3,08.2,0004.2,0013.98,0038.68,0007.23
2022-04-27 19:41:00,,0821.7,5.02,0.00,29.6,26.2,00.0,38.6,31.0,08.5,0004.1,0013.97,0039.04,0007.23
2022-04-27 19:42:00,,0821.7,4.99,0.00,29.6,26.4,00.0,38.6,31.1,08.4,0004.2,0014.08,0038.91,0007.25
2022-04-27 19:43:00,,0821.6,4.99,0.00,29.5,26.8,00.0,38.5,31.1,08.6,0004.0,0014.09,0038.85,0007.25
2022-04-27 19:44:00,,0821.6,5.00,0.00,29.5,27.1,00.0,38.5,31.2,08.5,0004.3,0014.07,0038.38,0007.25
2022-04-27 19:45:00,,0821.7,5.01,0.00,29.5,27.5,00.0,38.5,31.2,08.6,0004.7,0014.06,0040.07,0007.23
2022-04-27 19:46:00,,0821.7,4.98,0.00,29.5,27.7,00.0,38.5,31.2,08.3,0004.6,0013.98,0040.54,0007.23
2022-04-27 19:47:00,,0821.7,5.02,0.00,29.5,27.9,00.0,38.5,31.3,08.3,0004.2,0013.92,0040.25,0007.21
2022-04-27 19:48:00,,0821.7,4.99,0.00,29.5,28.1,00.0,38.5,31.3,08.5,0003.8,0013.75,0039.34,0007.17
2022-04-27 19:49:00,,0821.7,4.99,0.00,29.5,28.2,00.0,38.5,31.3,08.7,0003.4,0013.61,0039.24,0007.13
2022-04-27 19:50:00,,0821.7,5.02,0.00,29.5,28.4,00.0,38.5,31.3,08.7,0003.3,0013.50,0039.58,0007.11
2022-04-27 19:51:00,,0821.7,5.00,0.00,29.6,28.5,00.0,38.5,31.3,08.5,0003.3,0013.50,0039.10,0007.10
2022-04-27 19:52:00,,0821.7,4.99,0.00,29.6,28.5,00.0,38.5,31.4,08.6,0003.4,0013.47,0037.95,0007.10
2022-04-27 19:53:00,,0821.7,5.00,0.00,29.6,28.6,00.0,38.5,31.4,08.8,0003.0,0013.38,0037.84,0007.07
2022-04-27 19:54:00,,0821.6,4.99,0.00,29.6,28.6,00.0,38.5,31.4,08.7,0002.9,0013.29,0037.25,0007.01
2022-04-27 19:55:00,,0821.6,5.01,0.00,29.6,28.7,00.0,38.5,31.4,08.7,0002.5,0013.37,0037.44,0007.00
2022-04-27 19:56:00,,0821.7,4.98,0.00,29.6,28.7,00.0,38.5,31.4,08.6,0002.0,0013.40,0037.35,0006.98
2022-04-27 19:57:00,,0821.7,5.00,0.00,29.6,28.7,00.0,38.5,31.4,08.7,0001.7,0013.46,0038.00,0006.96
2022-04-27 19:58:00,,0821.7,5.01,0.00,29.6,27.7,00.0,38.5,31.1,08.7,0002.2,0013.41,0037.57,0006.96
2022-04-27 19:59:00,,0821.7,5.00,0.00,29.5,26.2,00.0,38.5,30.8,09.0,0002.2,0013.43,0038.03,0006.94
